Doris Moran — WRU2125 — position and weather

sailwx.info

Track history (hours):
 
Tides and Currents Weather Stations Pressure Air Temp Water Temp Dewpoint Dewpoint Depression Visibility Wind Speed Wind Dir Waves Ship Positions

Doris Moran

Owner: MORAN TOWING CORPORATION, New Canaan, CT. More information available from US FCC via Universal Licensing System and Coast Guard Vessel Documentation Center.

Last reported at 2014-Oct-25 23:30 UTC. Time now 2014-Oct-26 08:33 UTC.
Position N 40°48' W 073°59'.

Length 36 m; draft 5.3 m.

Type: Other ship. MMSI: 366939790.

Date/timePositionNaut miles runAvg speedWind from/ knotsBaromVisibWave heightAir tempDewpointWater temp
2014-Oct-25 23:30N 40°48' W 073°59'6 6.8
2014-Oct-25 22:34N 40°42' W 074°02'6 5.6
2014-Oct-25 21:29N 40°39' W 074°08'0 0.1
2014-Oct-25 20:25N 40°38' W 074°08'0 0.0
2014-Oct-25 19:33N 40°38' W 074°08'0 0.0
2014-Oct-25 18:34N 40°38' W 074°08'0 0.0
2014-Oct-25 17:34N 40°38' W 074°08'0 0.0
2014-Oct-25 16:33N 40°38' W 074°08'0 0.0
2014-Oct-25 15:34N 40°38' W 074°08'0 0.0
2014-Oct-25 14:32N 40°38' W 074°08'6 6.5
2014-Oct-25 13:33N 40°41' W 074°00'1 1.1
2014-Oct-25 12:33N 40°42' W 074°01'4 4.0
2014-Oct-25 11:34N 40°46' W 074°00'5 5.1
2014-Oct-25 10:34N 40°41' W 074°02'5 4.9
2014-Oct-25 09:33N 40°38' W 074°08'0 0.0
2014-Oct-25 08:33N 40°38' W 074°08'0 0.0
2014-Oct-25 07:33N 40°38' W 074°08'0 0.0
2014-Oct-25 06:34N 40°38' W 074°08'1 1.3
2014-Oct-25 05:33N 40°40' W 074°09'1 1.4
2014-Oct-25 04:33N 40°39' W 074°07'0 0.1
2014-Oct-25 03:33N 40°39' W 074°07'3 2.8
2014-Oct-25 02:33N 40°41' W 074°09'3 2.5
2014-Oct-25 01:31N 40°39' W 074°08'1 1.2
2014-Oct-25 00:34N 40°39' W 074°07'0 0.0
2014-Oct-24 23:34N 40°39' W 074°07'0 0.0
2014-Oct-24 22:34N 40°39' W 074°07'1 0.7
2014-Oct-24 21:34N 40°39' W 074°06'5112.2
2014-Oct-24 17:25N 39°48' W 074°02'1113.2
2014-Oct-24 16:33N 39°37' W 074°07'  
2014-Oct-21 02:09N 34°23' W 076°48'6 9.2
2014-Oct-21 01:33N 34°23' W 076°41'329 8.0
2014-Oct-19 08:33N 39°29' W 074°10'9 9.0
2014-Oct-19 07:33N 39°36' W 074°04'9 9.0
2014-Oct-19 06:33N 39°45' W 073°59'9 8.8
2014-Oct-19 05:32N 39°53' W 073°57'36 8.5
2014-Oct-19 01:15N 40°30' W 073°56'6 8.4
2014-Oct-19 00:30N 40°34' W 074°02'6 6.4
2014-Oct-18 23:33N 40°40' W 074°03'6 6.4
2014-Oct-18 22:33N 40°45' W 073°58'5 5.1
2014-Oct-18 21:32N 40°48' W 073°52'13 5.4
2014-Oct-18 19:04N 40°56' W 073°38'3 5.8
2014-Oct-18 18:29N 40°57' W 073°34'5 5.9
2014-Oct-18 17:33N 40°60' W 073°27'6 6.0
2014-Oct-18 16:33N 41°01' W 073°19'5 5.2
2014-Oct-18 15:33N 41°01' W 073°12'5 5.1
2014-Oct-18 14:32N 41°02' W 073°06'5 4.9
2014-Oct-18 13:33N 41°03' W 072°59'5 5.2
2014-Oct-18 12:33N 41°04' W 072°53'6 5.6
2014-Oct-18 11:34N 41°06' W 072°45'6 5.7
2014-Oct-18 10:33N 41°07' W 072°38'7 6.9
2014-Oct-18 09:33N 41°09' W 072°29'10 9.9
2014-Oct-18 08:34N 41°11' W 072°17'9 9.3
2014-Oct-18 07:34N 41°14' W 072°05'9 8.5
2014-Oct-18 06:34N 41°15' W 071°54'8 8.3
2014-Oct-18 05:34N 41°17' W 071°43'8 7.7
2014-Oct-18 04:33N 41°18' W 071°33'8 7.8
2014-Oct-18 03:34N 41°18' W 071°22'8 7.9
2014-Oct-18 02:33N 41°21' W 071°13'8 7.9
2014-Oct-18 01:34N 41°25' W 071°03'8 8.3
2014-Oct-18 00:34N 41°29' W 070°54'9 8.4
2014-Oct-17 23:31N 41°34' W 070°44'  
Track history (hours):
 
Tides and Currents Weather Stations Pressure Air Temp Water Temp Dewpoint Dewpoint Depression Visibility Wind Speed Wind Dir Waves Ship Positions

Doris Moran

Owner: MORAN TOWING CORPORATION, New Canaan, CT. More information available from US FCC via Universal Licensing System and Coast Guard Vessel Documentation Center.

Last reported at 2014-Oct-25 23:30 UTC. Time now 2014-Oct-26 08:33 UTC.
Position N 40°48' W 073°59'.

Length 36 m; draft 5.3 m.

Type: Other ship. MMSI: 366939790.

Date/timePositionNaut miles runAvg speedWind from/ knotsBaromVisibWave heightAir tempDewpointWater temp
2014-Oct-25 23:30N 40°48' W 073°59'6 6.8
2014-Oct-25 22:34N 40°42' W 074°02'6 5.6
2014-Oct-25 21:29N 40°39' W 074°08'0 0.1
2014-Oct-25 20:25N 40°38' W 074°08'0 0.0
2014-Oct-25 19:33N 40°38' W 074°08'0 0.0
2014-Oct-25 18:34N 40°38' W 074°08'0 0.0
2014-Oct-25 17:34N 40°38' W 074°08'0 0.0
2014-Oct-25 16:33N 40°38' W 074°08'0 0.0
2014-Oct-25 15:34N 40°38' W 074°08'0 0.0
2014-Oct-25 14:32N 40°38' W 074°08'6 6.5
2014-Oct-25 13:33N 40°41' W 074°00'1 1.1
2014-Oct-25 12:33N 40°42' W 074°01'4 4.0
2014-Oct-25 11:34N 40°46' W 074°00'5 5.1
2014-Oct-25 10:34N 40°41' W 074°02'5 4.9
2014-Oct-25 09:33N 40°38' W 074°08'0 0.0
2014-Oct-25 08:33N 40°38' W 074°08'0 0.0
2014-Oct-25 07:33N 40°38' W 074°08'0 0.0
2014-Oct-25 06:34N 40°38' W 074°08'1 1.3
2014-Oct-25 05:33N 40°40' W 074°09'1 1.4
2014-Oct-25 04:33N 40°39' W 074°07'0 0.1
2014-Oct-25 03:33N 40°39' W 074°07'3 2.8
2014-Oct-25 02:33N 40°41' W 074°09'3 2.5
2014-Oct-25 01:31N 40°39' W 074°08'1 1.2
2014-Oct-25 00:34N 40°39' W 074°07'0 0.0
2014-Oct-24 23:34N 40°39' W 074°07'0 0.0
2014-Oct-24 22:34N 40°39' W 074°07'1 0.7
2014-Oct-24 21:34N 40°39' W 074°06'5112.2
2014-Oct-24 17:25N 39°48' W 074°02'1113.2
2014-Oct-24 16:33N 39°37' W 074°07'  
2014-Oct-21 02:09N 34°23' W 076°48'6 9.2
2014-Oct-21 01:33N 34°23' W 076°41'329 8.0
2014-Oct-19 08:33N 39°29' W 074°10'9 9.0
2014-Oct-19 07:33N 39°36' W 074°04'9 9.0
2014-Oct-19 06:33N 39°45' W 073°59'9 8.8
2014-Oct-19 05:32N 39°53' W 073°57'36 8.5
2014-Oct-19 01:15N 40°30' W 073°56'6 8.4
2014-Oct-19 00:30N 40°34' W 074°02'6 6.4
2014-Oct-18 23:33N 40°40' W 074°03'6 6.4
2014-Oct-18 22:33N 40°45' W 073°58'5 5.1
2014-Oct-18 21:32N 40°48' W 073°52'13 5.4
2014-Oct-18 19:04N 40°56' W 073°38'3 5.8
2014-Oct-18 18:29N 40°57' W 073°34'5 5.9
2014-Oct-18 17:33N 40°60' W 073°27'6 6.0
2014-Oct-18 16:33N 41°01' W 073°19'5 5.2
2014-Oct-18 15:33N 41°01' W 073°12'5 5.1
2014-Oct-18 14:32N 41°02' W 073°06'5 4.9
2014-Oct-18 13:33N 41°03' W 072°59'5 5.2
2014-Oct-18 12:33N 41°04' W 072°53'6 5.6
2014-Oct-18 11:34N 41°06' W 072°45'6 5.7
2014-Oct-18 10:33N 41°07' W 072°38'7 6.9
2014-Oct-18 09:33N 41°09' W 072°29'10 9.9
2014-Oct-18 08:34N 41°11' W 072°17'9 9.3
2014-Oct-18 07:34N 41°14' W 072°05'9 8.5
2014-Oct-18 06:34N 41°15' W 071°54'8 8.3
2014-Oct-18 05:34N 41°17' W 071°43'8 7.7
2014-Oct-18 04:33N 41°18' W 071°33'8 7.8
2014-Oct-18 03:34N 41°18' W 071°22'8 7.9
2014-Oct-18 02:33N 41°21' W 071°13'8 7.9
2014-Oct-18 01:34N 41°25' W 071°03'8 8.3
2014-Oct-18 00:34N 41°29' W 070°54'9 8.4
2014-Oct-17 23:31N 41°34' W 070°44'  

Dump ship's entire track history